Location: Gro� Glienicke
(52.4675°N, 13.1079°E)
Time: 02:36:42
(UTC+00:00)

Cosmos 1943 Rocket - Pass Details

Date: 06 July 2020
Orbit: 811 x 845 km, 71.0° (Epoch: 04 August)

Event Time Altitude Azimuth Distance (km) Brightness Sun altitude
Rises 20:48:59 0° 328° (NNW) 3,416 7.9 -8.7°
Reaches altitude 10° 20:51:57 10° 342° (NNW) 2,479 6.1 -9.0°
Maximum altitude 20:56:29 24° 35° (NE) 1,702 4.1 -9.3°
Drops below altitude 10° 21:01:00 10° 88° (E) 2,468 4.4 -9.7°
Sets 21:03:56 0° 102° (ESE) 3,396 4.9 -9.9°
Enters shadow 21:03:58 - 103° (ESE) 3,408 4.9 -9.9°
